Location: A�t Bou Chrif
(32.7193°N, 5.2385°W)
Time: 03:18:37
(UTC+00:00)

Cosmos 1782 - Pass Details

Date: 08 August 2020
Orbit: 538 x 550 km, 82.5° (Epoch: 20 September)

Event Time Altitude Azimuth Distance (km) Brightness Sun altitude
Rises 20:29:54 0° 349° (NNW) 2,718 7.0 -15.5°
Reaches altitude 10° 20:32:05 10° 345° (NNW) 1,823 6.1 -15.9°
Maximum altitude 20:36:01 59° 266° (W) 639 3.3 -16.6°
Enters shadow 20:39:48 11° 187° (S) 1,752 5.1 -17.3°
